RH
4 4 4 4 4 4 4 4 4 4 4 5 5 6 6 7 7 8 8 8 8 9 11 13 14 16 17 18 20 21 22 23 23 24 26 27 30 33 38 42 46 51 62 78 90 96 100 102 105 106 106 106 106 103 99 93 91 94 98 101 104 104 106
3 4 4 4 4 4 4 4 4 4 4 4 4 4 5 5 6 6 7 8 8 8 8 9 11 13 14 15 17 18 19 20 21 22 23 24 25 26 27 30 35 39 48 63 78 88 94 98 102 105 106 108 110 109 106 99 94 91 93 99 105 108 109
3 3 3 3 4 4 4 4 4 4 4 4 4 4 4 4 4 5 5 6 7 7 7 7 8 9 11 12 13 14 16 17 19 20 21 22 23 24 25 25 27 29 33 44 58 73 85 92 97 101 103 106 109 107 104 103 102 97 92 95 101 106 108
3 3 3 3 3 3 3 4 4 4 4 4 4 4 4 4 4 4 5 5 5 6 6 6 7 7 8 10 11 12 13 14 16 17 18 20 21 22 23 24 25 25 26 30 39 51 66 79 87 93 96 100 104 104 101 101 103 103 98 96 99 104 105
4 4 3 4 4 4 4 4 3 4 3 3 3 3 4 4 4 4 4 4 5 5 5 5 6 6 6 7 8 10 11 11 13 14 15 17 18 19 21 22 23 24 23 25 29 36 46 58 68 75 81 87 94 99 101 101 102 104 102 99 99 102 105
4 4 4 4 4 4 4 4 4 4 4 3 3 3 3 3 4 4 4 4 4 4 5 5 5 6 6 6 6 7 8 10 10 11 12 13 15 16 18 20 21 22 22 23 25 29 34 42 49 53 58 66 77 87 95 99 101 102 101 101 101 102 105
4 4 4 4 4 4 4 4 4 4 4 4 4 4 4 4 3 4 4 4 4 4 4 5 5 5 5 5 5 6 6 7 8 9 10 11 12 13 15 17 18 19 20 22 23 25 29 33 38 41 43 47 55 66 77 86 93 97 98 98 100 101 104
3 3 3 3 3 3 3 3 3 4 4 4 4 4 4 4 4 4 4 4 4 4 4 4 4 5 5 5 5 5 5 6 6 7 8 9 10 11 12 13 15 16 18 19 21 23 26 29 31 35 37 39 42 48 56 63 72 82 88 91 94 96 98
3 3 3 3 3 3 3 3 3 3 3 3 4 4 4 4 4 4 4 4 4 4 4 4 4 4 4 5 5 5 6 6 6 6 6 7 8 9 10 11 11 13 15 17 19 20 22 25 28 30 32 35 37 40 44 48 54 62 69 74 79 82 83
3 3 3 3 3 3 3 3 3 3 3 3 3 3 3 4 4 4 4 5 5 5 4 4 4 4 4 4 4 5 5 6 6 6 6 6 7 7 8 9 10 11 11 13 15 17 19 20 23 26 28 31 33 35 38 41 45 50 54 57 62 65 65
3 3 3 3 3 4 3 3 4 3 3 3 3 3 3 3 3 4 4 4 4 5 5 5 4 4 4 4 4 4 5 5 6 6 6 6 6 6 7 7 8 9 10 11 12 13 14 17 19 21 24 27 29 31 35 37 40 43 46 48 51 53 54
3 3 3 3 3 3 3 3 3 3 3 3 3 3 3 3 3 3 3 4 4 4 4 5 5 5 5 5 4 4 4 5 5 6 6 6 6 6 7 7 7 8 8 9 10 11 11 13 15 17 20 22 25 28 31 35 38 40 42 43 44 46 47
3 3 3 3 3 3 3 3 3 3 3 3 3 3 3 3 4 4 3 3 3 4 4 4 4 4 4 5 5 5 5 5 5 5 5 6 6 6 6 7 7 7 7 8 8 9 9 10 12 14 17 19 22 25 27 30 34 36 38 40 41 42 43
3 3 3 3 3 4 3 3 3 3 3 3 3 3 3 4 4 4 4 4 4 3 3 3 3 3 4 4 5 5 5 5 6 6 5 5 5 6 6 6 7 6 6 7 7 7 8 9 10 11 13 16 19 22 24 26 28 31 33 35 36 37 39
3 3 3 3 3 4 4 4 4 3 3 3 3 3 4 4 4 4 4 4 4 3 3 3 3 3 3 3 4 5 5 6 6 6 6 6 6 5 6 6 6 7 6 6 7 7 7 8 8 9 11 13 15 17 19 20 22 25 27 30 32 34 35
3 3 3 3 3 3 3 3 4 4 4 3 3 3 4 4 4 4 4 4 3 3 3 3 3 3 3 3 3 4 4 5 6 6 6 6 6 6 6 6 6 6 6 6 7 7 7 7 8 8 9 10 11 13 14 16 18 20 22 25 28 29 31
3 3 3 3 3 3 3 3 3 4 4 3 3 3 4 4 4 4 4 4 4 3 3 3 3 3 3 4 4 4 4 4 5 5 5 5 6 6 7 7 7 6 6 7 7 7 7 7 7 8 8 9 9 10 10 12 14 16 18 20 22 23 25
3 3 3 3 3 3 3 3 3 3 3 3 4 4 4 4 4 4 4 4 4 4 4 4 4 4 4 4 4 5 5 5 4 4 4 4 5 6 7 7 8 8 7 7 7 7 7 7 8 8 8 8 8 8 9 10 10 11 13 15 16 18 19
4 4 3 3 3 3 3 3 3 3 3 3 4 4 4 4 4 4 4 4 4 4 4 4 4 4 4 4 4 5 5 5 4 3 3 4 4 5 6 6 7 8 8 8 8 8 7 7 7 8 8 8 8 8 8 8 9 9 10 11 12 13 14
4 4 4 4 4 3 3 3 3 3 3 4 4 4 4 4 4 4 4 4 4 4 4 4 4 4 4 4 4 5 5 4 4 3 4 5 5 4 5 5 6 6 7 8 9 9 9 8 8 8 8 8 8 9 8 8 8 8 9 9 9 10 10
4 4 4 4 4 4 4 4 3 3 3 4 4 4 4 4 4 4 4 4 4 4 4 4 4 4 5 5 5 5 4 3 3 4 5 5 5 5 5 5 5 6 6 7 8 9 9 9 9 9 9 8 8 8 8 8 8 8 8 8 9 9 8
4 4 4 4 4 4 4 4 4 4 4 4 4 4 4 4 4 4 4 4 4 4 4 4 4 4 4 5 5 5 5 4 4 4 5 5 5 5 5 5 5 5 6 6 6 7 8 9 10 10 10 9 9 9 9 9 8 8 8 9 8 9 8
4 4 4 5 4 4 4 4 4 4 4 4 4 4 4 4 4 4 4 4 4 4 4 4 4 4 4 5 5 5 5 5 4 5 5 5 5 5 6 6 6 6 6 6 6 6 7 8 9 10 10 11 10 10 10 9 9 8 8 9 8 9 9
4 4 4 4 5 5 5 5 4 4 4 4 4 4 4 4 4 4 5 5 4 4 4 4 4 4 5 5 5 5 5 5 5 5 5 5 5 5 6 6 6 6 6 6 6 6 6 7 7 8 9 10 11 11 11 11 11 10 9 9 9 9 9
4 5 5 5 5 5 5 5 5 5 5 4 4 4 4 4 5 5 5 5 5 5 4 4 5 5 5 5 5 5 5 5 5 5 5 6 6 5 6 6 6 7 7 7 7 7 6 7 7 7 8 9 9 10 11 11 11 11 11 11 10 10 10
5 5 5 5 5 5 5 5 5 5 5 5 5 5 5 5 5 5 5 5 5 5 5 5 5 5 5 5 5 5 5 5 6 6 6 6 6 5 5 6 6 6 6 6 7 7 7 7 7 7 8 8 9 9 10 10 11 11 11 11 11 11 11
5 5 5 5 5 5 5 5 5 5 5 5 5 5 5 5 5 5 5 5 5 5 5 5 5 5 5 5 5 5 5 5 5 6 6 6 6 6 6 6 6 6 6 7 7 7 7 7 7 8 8 8 8 8 9 9 10 10 10 10 11 11 11
5 5 5 5 5 5 5 5 6 5 5 6 6 6 5 5 5 5 5 5 5 6 6 6 6 6 6 6 6 5 6 6 6 6 6 6 6 6 6 6 6 6 7 7 7 7 8 8 8 8 8 8 8 8 9 9 9 10 10 10 10 10 10
5 5 5 5 5 6 6 6 6 6 6 6 6 6 6 6 6 6 6 6 6 6 6 6 6 7 6 6 7 7 6 7 7 6 7 7 7 7 7 7 7 7 7 8 8 8 8 9 9 9 9 9 9 9 9 9 9 9 10 10 10 10 10
5 5 5 5 5 6 6 6 6 6 6 6 6 7 7 6 6 6 6 6 6 6 6 7 7 7 7 7 7 7 7 7 8 7 8 8 8 8 8 8 8 8 8 8 9 9 9 9 10 10 10 10 10 10 10 10 10 10 10 10 10 10 10
5 5 5 5 5 6 6 6 7 6 6 7 7 7 7 7 7 7 6 7 7 6 7 7 7 7 7 7 8 8 8 8 8 8 8 8 8 9 9 9 9 9 9 9 9 9 10 10 10 10 11 11 11 11 11 11 11 11 10 10 11 11 11
6 6 6 6 6 6 6 6 6 7 7 7 7 7 7 7 7 7 7 7 7 7 7 7 7 8 8 8 8 8 8 8 8 8 8 9 9 9 9 9 9 9 9 9 9 9 10 10 10 10 11 11 11 11 11 11 11 11 11 11 11 11 10
7 6 7 6 6 6 6 6 6 6 7 7 7 7 7 7 7 8 7 7 7 8 8 8 8 8 8 8 8 8 8 8 8 9 9 9 9 9 9 9 9 9 9 9 9 9 10 10 10 10 10 10 10 10 11 11 11 11 11 11 11 11 10
7 7 7 7 7 7 6 6 6 6 6 7 7 8 8 8 8 8 8 8 8 8 8 8 8 8 8 9 9 9 9 9 9 9 9 9 9 9 9 9 9 9 10 10 10 10 10 9 10 10 10 10 10 10 10 10 10 10 10 10 11 11 11
7 7 8 8 7 8 7 7 7 7 6 7 7 7 8 8 8 8 8 8 8 8 8 8 8 8 9 9 9 9 9 9 10 10 9 9 10 9 9 10 10 10 10 10 10 10 10 10 10 10 10 10 10 10 10 10 10 10 10 10 10 10 11
7 7 8 8 8 8 8 8 7 7 7 7 7 7 8 8 8 9 9 9 9 9 9 9 9 9 9 9 9 10 10 10 10 10 10 10 10 10 10 10 10 10 10 10 10 10 10 10 10 10 10 10 10 10 10 10 10 10 10 10 10 10 10
Wind_Speed
100 102 103 104 106 107 108 109 111 113 114 116 118 119 120 121 122 123 125 126 128 130 132 134 136 137 138 138 139 140 140 141 141 141 141 142 142 143 143 143 143 141 139 138 138 138 138 139 139 138 138 139 139 140 140 140 139 138 137 136 135 133 132
97 98 100 101 103 104 105 106 107 109 110 112 113 115 117 118 119 121 122 124 125 127 128 129 132 134 136 137 138 139 140 140 141 141 141 141 141 142 142 143 143 142 141 139 139 140 140 140 140 139 140 140 140 141 141 141 141 140 138 137 136 135 134
92 94 96 98 99 101 102 103 104 105 106 108 109 111 113 114 116 117 119 121 123 124 125 125 127 129 131 134 136 137 138 139 140 140 141 141 141 141 141 141 142 142 141 140 141 141 142 142 142 141 141 141 142 142 142 142 142 142 140 139 138 137 136
89 91 93 94 95 97 99 100 101 102 103 104 105 107 108 110 111 113 115 117 119 121 122 123 123 124 126 129 132 134 136 137 138 139 140 140 140 140 140 140 141 141 140 140 140 142 143 143 144 144 143 143 143 144 144 143 143 143 142 141 139 138 138
88 89 89 90 92 94 96 97 99 100 101 101 102 103 104 105 107 108 110 112 115 117 118 119 121 122 123 124 127 129 131 133 135 136 137 139 139 140 140 140 140 140 139 138 139 141 143 144 144 145 145 145 145 145 145 145 145 145 144 143 142 140 139
87 88 88 88 89 90 92 94 96 97 99 99 100 100 101 102 103 104 105 107 109 111 112 115 117 119 120 121 122 124 126 128 130 132 134 135 137 138 138 139 139 139 138 138 138 139 141 143 144 144 145 145 146 146 146 146 146 147 146 145 144 143 141
84 86 87 87 88 89 90 91 92 94 96 97 98 98 98 99 100 101 101 102 104 105 106 108 112 115 117 118 119 120 122 124 126 128 130 131 133 134 135 136 137 138 138 138 138 138 140 141 142 143 143 144 145 146 146 147 147 148 148 148 147 145 144
81 83 84 85 87 88 88 89 90 91 92 93 94 96 96 96 97 97 98 99 100 100 101 103 105 108 111 114 115 117 118 120 122 124 125 127 128 130 131 132 134 135 136 137 138 138 139 140 141 141 142 142 143 145 145 146 146 148 149 149 148 148 146
78 79 81 82 84 85 87 88 89 90 90 90 91 92 93 94 94 94 94 95 96 97 98 99 100 102 105 107 110 112 114 117 118 120 121 122 124 125 126 128 129 131 133 134 136 137 138 138 139 140 140 141 142 143 143 144 145 146 147 148 149 148 148
75 75 77 78 80 82 83 85 87 88 89 88 88 89 90 91 91 91 91 92 93 94 95 96 97 98 100 102 104 106 109 112 114 115 116 118 119 121 122 124 125 127 128 130 132 134 135 136 137 138 139 140 140 141 141 142 143 144 145 146 147 147 147
72 72 73 74 76 78 80 82 84 85 86 87 87 87 87 88 88 88 89 90 90 91 92 93 94 95 96 98 99 100 102 105 108 110 112 113 115 117 119 120 122 123 125 126 128 129 131 133 134 136 136 137 138 139 140 141 142 143 143 144 145 145 145
69 70 70 71 72 74 76 78 80 81 82 84 84 84 84 84 85 86 87 88 89 89 90 90 91 92 93 94 95 96 97 99 102 105 107 109 111 113 115 117 119 121 122 123 124 125 126 128 130 131 133 134 135 136 138 139 140 141 142 143 143 144 144
66 67 67 68 69 71 73 74 76 77 78 80 81 81 81 81 82 84 85 87 87 88 87 88 88 89 90 90 91 92 93 94 96 99 102 104 107 108 111 113 115 117 119 120 121 122 123 123 125 127 128 130 132 134 135 137 138 139 140 141 142 143 143
63 63 64 65 66 68 69 71 72 73 74 75 77 77 77 77 79 81 83 85 86 86 86 86 86 86 86 87 87 88 89 91 92 94 96 98 101 104 106 109 111 113 114 116 117 118 119 120 121 123 124 126 128 131 132 134 135 136 138 139 140 141 141
60 61 61 61 62 64 66 67 68 69 70 71 73 73 73 74 76 79 81 82 83 84 84 84 84 84 83 83 84 85 86 88 89 91 92 94 96 99 101 104 107 109 110 111 112 114 116 117 118 120 121 123 126 127 129 130 131 132 134 135 137 138 139
58 59 59 59 59 61 62 64 64 66 67 68 69 69 69 71 74 76 78 79 80 81 81 81 81 82 81 81 81 82 83 85 87 89 90 91 93 95 97 99 101 103 105 106 108 110 112 114 115 117 119 121 123 124 125 126 127 128 130 132 134 135 136
56 57 57 57 57 58 59 60 61 62 64 65 65 65 66 69 71 72 74 75 75 76 77 78 79 79 79 79 79 80 82 84 85 87 88 89 90 91 93 94 95 97 99 102 104 106 108 109 111 113 115 117 120 121 121 122 124 125 127 128 130 131 132
54 54 55 56 56 56 56 57 57 59 60 60 61 62 64 66 67 68 69 70 71 71 73 75 76 76 76 76 76 78 81 84 84 84 85 85 86 87 89 90 92 93 95 97 99 102 104 105 107 109 111 114 116 117 118 119 120 122 124 125 126 127 128
52 52 53 53 54 54 54 55 55 55 56 56 57 58 60 61 62 64 66 67 68 69 70 72 73 74 74 74 73 75 79 83 83 80 79 80 81 84 86 88 89 90 91 93 95 97 99 101 103 105 107 109 111 113 114 115 116 118 120 122 123 124 125
50 50 51 51 52 52 52 52 52 53 53 53 54 55 55 57 59 61 63 64 65 66 67 68 69 70 71 71 72 74 77 79 78 76 76 78 79 81 83 85 86 87 88 89 91 93 95 96 98 100 103 105 107 109 110 111 112 114 116 117 119 120 121
47 48 48 49 49 50 50 50 50 51 51 51 51 52 53 55 56 58 59 60 61 62 63 64 65 66 67 69 71 73 75 74 72 72 74 76 77 78 79 81 83 84 85 86 88 89 91 92 94 96 98 101 103 105 106 107 108 109 111 113 114 115 117
45 46 46 46 46 47 47 48 48 48 48 48 49 50 51 52 52 53 55 56 57 59 60 61 62 64 65 67 69 71 72 71 69 70 71 72 73 75 77 78 79 80 82 83 85 86 87 89 91 92 94 96 98 100 102 103 105 106 107 108 110 111 112
44 44 44 44 44 44 45 45 46 46 46 47 47 47 47 48 49 50 52 53 54 55 56 58 59 61 62 64 66 67 68 69 68 68 68 69 70 71 73 74 75 76 78 80 81 83 84 86 87 89 91 92 94 96 98 99 101 102 103 104 106 107 108
42 42 42 42 42 42 43 43 43 44 44 44 44 44 45 45 46 48 49 50 51 52 53 55 56 58 59 61 62 64 65 66 66 66 66 67 67 68 69 71 72 73 75 76 78 79 81 82 84 86 87 89 91 92 94 95 97 98 100 101 102 103 104
41 41 41 41 40 40 40 41 41 41 42 42 42 42 43 43 44 45 46 47 48 49 50 51 53 55 56 58 59 60 61 62 63 63 64 64 65 65 66 67 69 70 72 73 75 76 78 79 81 82 84 86 88 89 91 92 93 95 96 98 99 100 101
40 40 39 39 39 39 39 39 39 39 40 40 40 40 41 41 42 43 44 45 46 46 47 48 50 51 53 54 56 57 58 59 59 60 61 62 63 63 64 65 66 67 68 70 72 73 75 76 78 79 81 83 85 86 88 89 91 92 93 95 96 97 98
38 38 38 38 37 37 37 37 37 37 38 38 38 38 39 39 40 40 41 42 43 44 45 46 47 48 50 51 52 54 55 56 57 57 58 59 60 61 62 63 63 64 65 67 68 70 71 73 75 76 78 80 82 83 85 86 88 89 91 92 93 94 95
37 37 36 36 36 35 35 35 36 36 36 36 36 37 37 37 38 39 39 40 41 41 43 44 45 46 47 48 50 51 52 53 54 55 56 57 58 59 60 61 62 62 63 64 66 67 69 70 72 73 75 76 78 80 81 83 84 86 87 88 90 91 92
35 35 35 34 34 34 34 34 34 34 34 34 35 35 35 36 37 37 38 39 39 40 40 41 43 44 45 46 47 48 50 51 52 53 54 55 56 57 58 59 60 61 62 63 64 65 66 67 69 70 72 73 75 76 78 79 81 82 83 85 86 87 88
34 34 34 33 32 32 32 32 33 33 33 32 33 33 34 34 35 36 37 37 38 38 39 40 41 42 43 44 45 46 47 49 50 51 52 52 54 55 56 57 59 60 61 61 62 63 64 65 66 67 69 70 72 73 75 76 78 79 80 81 83 84 85
34 33 33 33 32 31 31 31 31 32 32 32 32 32 32 33 33 34 35 36 37 37 38 38 39 40 41 42 43 44 45 46 47 48 49 51 52 53 54 55 56 58 59 60 60 61 62 63 64 65 66 68 69 71 72 74 75 76 78 79 80 81 82
33 33 32 32 32 31 31 30 30 30 31 32 31 31 31 31 32 32 33 34 35 36 36 37 38 39 39 40 41 42 43 44 45 46 47 48 49 50 52 53 54 55 56 57 58 59 60 62 62 63 64 65 67 68 69 71 72 73 75 76 77 78 79
33 33 32 32 32 31 31 31 30 30 30 31 31 31 31 31 31 32 32 33 34 34 35 36 37 37 38 39 40 40 41 42 43 44 45 46 47 48 49 50 51 52 53 55 56 57 58 60 61 62 63 64 65 66 67 68 69 71 72 73 74 75 76
33 33 32 32 32 31 31 30 30 30 30 30 30 30 31 31 31 31 32 32 33 34 34 35 36 36 37 38 38 39 40 41 41 42 43 44 45 46 47 48 49 50 51 52 53 55 56 57 58 60 61 62 63 64 65 66 67 68 69 70 71 72 73
33 33 32 32 32 32 31 31 30 30 30 30 29 29 30 30 30 31 31 32 32 33 34 34 35 36 36 37 38 38 39 40 40 41 42 43 43 44 45 46 47 48 49 50 51 52 53 54 56 57 58 59 60 61 62 63 64 65 66 67 68 69 70
33 33 32 31 31 31 31 31 31 30 30 30 30 29 29 29 30 30 30 31 32 32 33 34 34 35 36 36 37 37 38 39 39 40 41 41 42 43 44 44 45 46 47 48 49 50 51 52 53 54 55 55 56 57 58 59 60 62 63 64 65 67 68
Wind_Direction
267 266 265 264 262 261 260 259 259 258 258 257 257 256 256 255 254 253 253 252 251 250 250 250 250 250 250 250 250 249 249 249 248 248 247 247 247 247 248 248 248 247 246 246 246 246 247 247 248 249 250 250 251 251 251 252 252 252 252 252 252 252 252
267 266 265 264 263 262 261 260 259 259 258 257 257 256 256 255 254 254 253 253 252 252 251 250 250 250 250 250 250 250 250 250 249 249 248 248 247 247 247 247 247 247 246 246 246 246 246 247 247 248 248 249 250 250 251 252 252 251 251 251 252 252 252
267 266 265 264 264 263 262 261 260 259 259 258 257 257 256 255 254 254 253 253 252 252 252 251 250 250 250 250 250 250 250 250 250 250 250 249 249 248 247 247 247 247 247 246 246 246 246 246 247 247 247 248 249 250 250 251 251 252 251 251 251 251 252
267 265 264 264 264 263 263 262 261 260 259 258 258 257 256 256 255 254 253 253 253 252 252 252 251 251 250 250 250 250 250 250 250 250 250 250 250 249 249 248 248 247 247 246 246 246 246 246 247 247 247 247 248 249 250 250 251 251 251 251 251 251 251
268 267 265 264 263 263 262 262 262 261 260 259 258 258 257 256 256 255 254 253 253 253 252 252 252 251 251 250 250 250 250 250 250 250 250 250 250 250 250 249 249 248 247 247 246 246 246 246 246 247 247 247 248 248 249 250 250 251 251 251 251 251 251
268 268 267 265 264 263 262 261 261 261 261 260 260 259 258 257 256 256 255 254 253 253 252 252 252 251 251 251 251 250 250 250 250 250 250 250 250 250 250 250 250 250 249 248 247 246 246 247 247 247 247 247 248 248 248 249 250 251 251 251 251 251 251
267 267 267 266 265 264 263 262 261 260 260 260 260 260 259 258 257 257 256 255 255 254 253 252 252 251 251 251 251 251 251 250 250 250 250 250 250 250 250 250 250 250 250 249 249 248 247 247 247 247 247 247 248 248 248 248 249 250 251 251 251 251 251
267 266 266 266 266 265 264 263 262 261 260 260 260 259 259 259 258 257 256 256 256 255 254 253 252 251 251 251 251 251 250 250 250 250 250 250 250 250 250 250 250 250 250 250 250 249 249 248 248 248 247 247 248 248 248 248 249 249 250 251 251 252 251
267 266 266 265 265 265 265 264 264 263 262 261 260 260 259 259 258 258 257 256 256 256 255 254 253 252 251 250 250 250 250 250 250 250 250 250 250 250 250 250 250 250 250 250 250 250 249 249 249 248 248 248 248 248 248 249 249 249 250 250 251 252 252
269 267 266 265 264 264 264 264 264 264 263 262 262 261 260 260 259 259 258 257 256 256 255 254 253 252 251 251 250 250 250 250 250 250 250 250 250 250 250 250 250 250 250 250 250 250 250 250 249 249 249 249 248 248 249 249 249 249 250 250 251 251 252
270 269 267 266 265 264 263 262 262 262 263 263 262 262 261 260 260 260 259 258 256 255 255 254 254 253 252 251 250 249 249 249 249 250 250 250 249 249 250 250 250 250 250 250 249 249 249 250 250 250 249 249 249 249 249 249 249 249 250 250 251 251 251
272 270 269 267 266 264 263 262 262 262 262 262 262 262 261 261 261 260 259 259 257 256 255 254 254 253 252 252 251 251 249 249 248 249 249 249 249 249 249 249 249 249 249 249 249 249 249 249 249 249 250 250 249 249 249 249 249 249 250 250 250 251 251
273 272 270 269 267 265 264 263 262 262 261 261 261 261 261 261 261 260 260 259 258 257 256 255 253 253 252 252 252 251 251 250 249 248 248 248 249 249 248 248 248 248 249 249 249 248 249 249 249 249 249 249 250 249 249 249 249 249 249 250 250 250 251
274 272 271 269 268 267 266 264 263 262 262 261 261 260 260 260 260 259 259 259 258 258 257 256 254 253 252 252 252 251 251 251 250 249 249 248 248 248 248 248 248 248 248 248 248 249 248 248 248 249 249 249 249 249 249 249 249 249 249 249 250 250 250
275 273 271 270 268 267 266 265 264 263 262 261 260 260 259 258 258 257 257 257 258 257 257 257 256 255 254 253 252 251 251 251 251 250 249 249 248 248 247 247 248 248 248 248 248 249 249 248 248 248 248 248 248 248 248 248 249 249 249 249 249 250 250
277 275 273 271 269 267 266 265 264 264 263 262 261 260 259 258 257 256 256 256 257 257 258 257 257 256 256 255 253 252 251 250 250 249 249 248 248 248 247 247 247 248 248 249 249 249 248 248 248 248 248 248 248 248 248 248 248 249 249 249 249 249 249
279 277 276 273 271 269 267 266 265 263 262 262 261 260 259 258 258 257 257 257 257 257 258 258 257 256 256 255 255 254 252 251 249 248 248 248 248 248 248 248 248 247 248 248 248 248 248 249 249 249 248 248 248 248 248 248 248 248 248 249 249 249 249
281 279 278 276 274 272 270 268 266 265 264 263 262 260 259 259 259 259 258 258 258 257 257 257 257 256 255 254 254 253 253 252 250 249 248 248 248 248 249 249 248 247 247 247 247 248 248 248 249 249 249 249 249 249 248 248 248 248 248 248 248 249 249
282 281 279 277 276 274 273 271 269 268 267 265 263 260 259 259 258 258 258 257 256 256 255 255 255 255 255 254 253 252 252 252 252 251 250 249 249 248 248 249 248 248 248 247 247 247 248 248 248 248 249 249 249 249 249 249 248 248 248 248 248 248 248
283 281 280 279 277 276 274 273 271 269 268 266 264 262 260 258 257 256 256 256 256 255 255 255 255 255 255 255 254 253 252 251 252 252 252 251 250 248 248 248 248 248 248 248 248 248 247 247 248 248 248 249 249 250 250 250 249 249 249 249 248 248 248
284 283 281 280 278 277 276 274 272 271 269 267 265 263 261 259 258 257 257 257 257 256 256 255 255 254 254 253 253 253 253 253 252 252 251 250 250 250 249 248 248 248 248 248 248 248 248 248 247 247 248 248 249 249 250 250 250 250 250 250 249 249 249
285 284 283 282 280 278 276 274 273 271 270 268 266 264 262 261 260 259 258 257 256 256 255 255 254 253 253 252 252 253 254 254 253 252 251 250 250 250 250 249 249 248 248 248 248 248 248 248 248 248 248 248 248 249 249 250 250 250 250 250 250 250 250
287 286 285 283 282 280 277 275 273 272 270 269 267 266 264 262 261 259 257 257 256 255 255 254 254 253 252 252 252 252 253 254 253 252 252 250 249 249 249 250 249 249 248 248 248 248 248 247 248 248 248 248 248 249 249 250 250 250 251 251 251 251 251
289 287 286 285 283 281 279 277 275 273 271 270 268 267 265 263 261 260 258 257 256 255 255 254 254 253 253 252 252 252 252 253 253 252 252 251 250 249 249 249 249 249 248 248 248 248 248 247 247 248 248 248 248 249 249 249 250 250 250 251 251 251 251
290 288 287 286 285 283 281 279 277 275 273 271 269 268 266 264 263 261 259 258 257 256 255 254 254 253 253 253 253 253 252 252 252 252 251 251 250 249 249 248 248 248 248 248 248 248 248 248 247 247 248 248 248 248 249 249 250 250 250 250 251 251 251
291 289 288 287 285 284 282 281 279 277 275 273 271 269 267 265 263 262 260 259 258 257 256 255 254 253 253 253 253 253 253 252 252 251 251 251 250 250 249 248 248 248 248 248 248 248 248 248 248 248 248 248 248 248 248 249 249 250 250 250 251 251 251
292 290 288 287 286 285 284 282 280 278 276 274 273 270 269 266 264 263 261 260 259 258 256 255 254 253 253 253 252 252 252 252 252 251 251 251 250 250 250 250 249 249 248 248 248 248 248 248 248 248 248 248 248 249 249 249 249 250 250 251 251 251 251
293 291 289 288 286 286 284 283 282 280 278 276 275 272 271 268 266 264 263 261 259 258 257 256 255 254 253 253 252 252 252 252 251 251 251 251 251 251 251 251 251 250 249 249 249 249 249 249 249 249 249 249 249 249 250 250 250 250 251 251 251 252 252
294 292 290 288 287 286 285 284 282 281 279 278 277 275 273 271 269 267 264 262 261 259 258 257 256 255 254 253 253 253 252 252 251 251 251 251 250 250 251 251 251 251 251 250 250 249 249 249 249 250 250 250 250 250 250 251 251 251 251 251 252 252 252
296 294 293 290 288 287 286 285 283 281 279 277 276 275 273 272 270 269 267 265 263 261 259 258 257 256 255 254 254 253 253 252 252 251 251 250 250 250 250 250 251 251 251 251 251 251 250 250 250 250 250 250 250 251 251 251 251 252 252 252 252 252 253
298 296 294 293 291 288 286 285 283 282 281 278 276 274 273 271 270 269 268 266 265 263 261 260 259 258 256 255 255 254 253 253 253 252 252 251 250 250 250 250 250 250 251 251 251 251 251 251 251 251 250 250 251 251 251 252 252 252 253 253 253 253 253
299 298 296 294 292 290 288 285 283 282 281 280 278 275 273 271 270 269 268 267 265 264 263 262 260 259 258 257 256 255 255 254 254 253 253 252 252 251 251 250 250 250 251 251 251 251 252 252 252 252 251 251 251 251 252 252 252 253 253 253 254 254 254
300 299 297 295 293 291 289 287 284 282 280 279 278 277 275 273 271 269 267 266 265 265 264 263 261 260 259 258 257 257 256 255 255 255 254 254 253 253 253 252 252 251 251 251 251 251 251 252 252 252 252 252 253 253 253 253 253 254 254 255 255 255 256
301 300 298 296 294 292 290 288 285 283 281 279 278 277 276 275 273 271 269 268 266 265 265 263 263 261 260 260 259 258 257 256 256 255 255 255 254 254 254 254 253 253 253 252 252 252 252 252 252 253 253 253 254 254 254 255 255 255 256 256 257 257 257
301 300 298 296 295 293 291 289 287 285 283 281 279 278 277 276 275 274 272 271 269 268 266 265 264 264 263 262 261 260 259 258 257 257 256 256 255 255 255 255 254 254 254 253 253 253 253 253 253 254 254 254 255 255 256 256 256 256 257 257 257 258 258
302 300 298 296 294 293 291 290 289 288 286 284 282 280 278 276 275 273 272 272 271 270 269 267 267 266 265 264 263 262 262 261 260 259 258 258 257 257 256 256 256 255 255 255 255 255 255 255 255 255 255 256 256 257 257 257 257 257 257 257 257 257 257